Meteo Giornale » Osservazioni meteo Italia » Cuneo-Levaldigi

ore: 23:20 - Osservazioni Meteo Cuneo-Levaldigi
Lat. 44° 32' N Lon. 7° 37' E Alt. 396 metri s.l.m.

nuvoloso Europe/Rome

19 °C

Nuvoloso

Temp. 24 Ore

19 °C

27 °C

Nord/NOvest

9.3 Km/h

Dew point 19 °C

Umidità 100 %

Visibilità  10 Km

Il sole sorge alle ore 06:13

Il sole tramonta alle ore 20:57

Data e Ora Cielo e Fenomeni T °C DP °C Um. % Pres. hPa Vis. km Vento km/h
Oggi h: 23:20 nuvoloso Nuvoloso 19 19 100 1007 10 N/NO 9.3
Oggi h: 22:20 coperto_pioggia Pioviggine Leggera 20 19 93 1007 10 N 7.4
Oggi h: 21:50 coperto Coperto 20 19 93 1008 10 N 5.5
Oggi h: 21:20 coperto Coperto 20 19 93 1008 10 N 5.5
Oggi h: 20:50 molto_nuvoloso Molto Nuvoloso 20 19 93 1008 10 N 1.8
Oggi h: 20:20 molto_nuvoloso Molto Nuvoloso 20 19 93 1008 10 N/NE 7.4
Oggi h: 19:50 nuvoloso Nuvoloso 21 19 88 1008 10 N 9.3
Oggi h: 19:20 coperto_pioggia Pioggia Debole 22 20 88 1008 10 N 5.5
Oggi h: 18:50 molto_nuvoloso Molto Nuvoloso 21 20 94 1008 10 N 3.7
Oggi h: 18:20 molto_nuvoloso Molto Nuvoloso 21 19 88 1008 10 O 7.4
Oggi h: 17:50 nuvoloso_temporali Temporale nelle Vicinanze 20 19 93 1008 10 O 9.3
Oggi h: 17:20 nuvoloso_temporali Temporale nelle Vicinanze 20 20 100 1008 10 O/SO 7.4
Oggi h: 16:50 coperto_pioggia Pioggia Debole Temporale nelle Vicinanze 19 19 100 1009 10 N 3.7
Oggi h: 16:20 nuvoloso_temporali Temporale nelle Vicinanze 19 19 100 1009 10 O/SO 7.4
Oggi h: 15:50 nuvoloso_temporali Temporale nelle Vicinanze 19 19 100 1009 10 E 7.4
Oggi h: 15:20 nuvoloso_temporali Temporale con Pioggia 19 19 100 1009 8 NE 22.2
Oggi h: 14:50 coperto_temporali Temporale 22 18 78 1009 10 N/NE 18.5
Oggi h: 14:20 nuvoloso_temporali Temporale nelle Vicinanze 24 20 78 1009 10 N 20.3
Oggi h: 13:50 coperto_temporali Temporale 26 20 69 1009 10 N 5.5
Oggi h: 13:20 nuvoloso Nuvoloso 27 20 65 1009 10 N 5.5
Oggi h: 12:20 poco_nuvoloso Poco Nuvoloso 26 19 65 1010 10 N 5.5
Oggi h: 11:50 nuvoloso Nuvoloso 25 19 69 1010 10 N 7.4
Oggi h: 11:20 poco_nuvoloso Poco Nuvoloso 25 20 73 1010 10 NE 9.3
Oggi h: 10:50 sereno Sereno 24 18 69 1010 10 N/NE 11.1
Oggi h: 10:20 sereno Sereno 24 18 69 1011 10 N/NE 11.1
Oggi h: 09:50 poco_nuvoloso Poco Nuvoloso 23 19 78 1010 10 N/NE 11.1
Oggi h: 09:20 sereno Sereno 23 18 73 1010 10 N/NO 11.1
Oggi h: 08:50 sereno Sereno 23 17 68 1010 10 NO 9.3
Oggi h: 08:20 sereno Sereno 21 18 82 1010 10 O 7.4
Oggi h: 07:50 sereno Sereno 20 17 82 1010 10 N 5.5
Oggi h: 07:20 sereno Sereno 19 18 93 1010 10 N 1.8
Oggi h: 06:50 sereno Sereno 19 18 93 1010 10 N 3.7
Oggi h: 05:50 sereno Sereno 19 17 88 1010 10 E 9.3
Oggi h: 05:20 sereno Sereno 20 17 82 1009 10 N 5.5
Oggi h: 04:50 sereno Sereno 20 18 88 1009 10 N 3.7
Oggi h: 04:20 poco_nuvoloso Poco Nuvoloso 20 19 93 1009 10 S/SO 9.3
Oggi h: 03:50 sereno Sereno 21 19 88 1010 10 S/SO 16.7
Oggi h: 03:20 sereno Sereno 21 19 88 1010 10 S/SO 13
Oggi h: 02:50 poco_nuvoloso Poco Nuvoloso 21 20 94 1010 10 S/SO 14.8
Oggi h: 02:20 molto_nuvoloso Molto Nuvoloso 21 19 88 1011 10 S/SO 11.1
Oggi h: 01:50 nuvoloso Nuvoloso 21 19 88 1012 10 S/SO 7.4
Oggi h: 01:20 molto_nuvoloso Molto Nuvoloso 22 19 83 1012 10 N 9.3
Oggi h: 00:50 molto_nuvoloso Molto Nuvoloso 23 19 78 1012 10 N/NO 11.1
Oggi h: 00:20 molto_nuvoloso Molto Nuvoloso 22 19 83 1012 10 N 5.5
Ieri h: 23:50 molto_nuvoloso Molto Nuvoloso 22 20 88 1011 10 N 5.5